Showing default

LEMUR-2 CLARA, 68483

Orbit data source: Space-Track

LEMUR-2 CLARA, 68483 is a payload satellite owned by Spire (LU) in SSO that was launched on Mon, 30 Mar 2026 UTC via an FALCON 9 launch vehicle from the Air Force Western Test Range (AFWTR). Payload-class satellites include a variety of spacecraft equipped with specific instruments for various scientific and technological missions. These include communications satellites like Starlink; space stations such as the ISS; scientific satellites like the Hubble; Earth observation satellites from companies like Planet Labs, Umbra, and HawkEye 360; GPS; miniature CubeSats for education and research; and military/defense satellites.

Loading next visibility...
Identifier
68483, 2026-067BV
Orbit
SSO
Country
Flag of LULU / LUXE
Related business
Manufacturer
Spire/Glasgow
Mission
Operational Commercial Com/MetRO
Bus & Motor
CUBESAT 3U, Unknown motor
Mass
7.6 kg wet, 7.6 kg dry
Launch date (UTC)
2026-03-30 (6 months ago)
Launch vehicle
FALCON 9
Launch site
Air Force Western Test Range (AFWTR)
Object type
Payload
Rocket body
Debris
Shape & HBR
Box + 2 Pan, 0.5 m
Radar Cross Section
0.063 m², Medium (>0.1 m² and < 1m²)

Expand to show TLE details & history
Last TLE update: 1 day ago

TLE from 1 day ago
0 LEMUR-2 CLARA
1 68483U 26067BV  26262.30839543  .00002736  00000-0  26693-3 0  9990
2 68483  97.7746 219.5126 0003033  11.5425 348.5863 14.93261743 25772
Epoch: 2026-09-19T07:24Z
TLE epoch observation values (Epoch: 2026-09-19T07:24:05.365Z)
Latitude
-0.00006°
Longitude
110.27146°
Altitude
588.745 km
Speed
7.567 km/s
True Right ascension
14h 38m 03s
True Declination
0° 00' 00"
Sunlit
Object was in daylight at epoch
Visualization orbit readout
Latitude
Unknown
Longitude
Unknown
Altitude
Unknown
Speed
Unknown
Apparent Right ascension
Unknown
Apparent Declination
Unknown
Sunlit
N/A
Visualization observer readout
Local Sidereal Time
06:57:08
Azimuth
Unknown
Elevation
Unknown
Doppler factor
Unknown
Orbital elements
Apogee altitude
586.903 km
Perigee altitude
582.679 km
Semi-major axis
6,962.928 km
Eccentricity
0.0003
Inclination
97.7746°
RAAN
219.5126°
Arg. of periapsis
11.5425°
True anomaly
348.57942°
Mean anomaly
348.5863°
Eccentric anomaly
348.58286°
Mean motion
3.73556 °/min
Orbital period
96.37 mins
BSTAR
0.00026693
Loading maneuver chart data...
Computing Atmospheric mass density...
Loading historical data...
Loading historical data...
Loading historical data...
Loading historical data...
Loading historical data...
Loading historical data...
Loading historical data...

Documentation

Showing up to 5 results
|